Time,TemperatureF,DewpointF,PressureIn,WindDirection,WindDirectionDegrees,WindSpeedMPH,WindSpeedGustMPH,Humidity,HourlyPrecipIn,Conditions,Clouds,dailyrainin,SoftwareType,DateUTC
2013-01-19 00:04:00,68.0,57.0,30.17,East,79,5.0,8.0,66,-99.99,,,-99.99,,2013-01-19 05:04:00,
2013-01-19 00:13:00,68.0,57.0,30.16,East,81,6.0,10.0,67,-99.99,,,-99.99,,2013-01-19 05:13:00,
2013-01-19 00:23:00,68.0,57.0,30.16,East,81,6.0,10.0,67,-99.99,,,-99.99,,2013-01-19 05:23:00,
2013-01-19 00:33:00,68.0,59.0,30.16,East,95,6.0,10.0,70,-99.99,,,-99.99,,2013-01-19 05:33:00,
2013-01-19 00:43:00,69.0,59.0,30.16,East,98,7.0,12.0,70,-99.99,,,-99.99,,2013-01-19 05:43:00,
2013-01-19 00:53:00,69.0,59.0,30.16,East,97,7.0,10.0,71,-99.99,,,-99.99,,2013-01-19 05:53:00,
2013-01-19 01:03:00,69.0,59.0,30.16,East,97,7.0,10.0,71,-99.99,,,-99.99,,2013-01-19 06:03:00,
2013-01-19 01:12:00,68.0,59.0,30.15,East,91,6.0,10.0,71,-99.99,,,-99.99,,2013-01-19 06:12:00,
2013-01-19 01:23:00,68.0,59.0,30.15,East,91,6.0,10.0,71,-99.99,,,-99.99,,2013-01-19 06:23:00,
2013-01-19 01:33:00,69.0,59.0,30.15,East,96,6.0,10.0,71,-99.99,,,-99.99,,2013-01-19 06:33:00,
2013-01-19 01:43:00,69.0,59.0,30.15,East,93,5.0,8.0,71,-99.99,,,-99.99,,2013-01-19 06:43:00,
2013-01-19 01:53:00,69.0,60.0,30.14,East,88,5.0,9.0,72,-99.99,,,-99.99,,2013-01-19 06:53:00,
2013-01-19 02:02:00,69.0,60.0,30.14,East,88,5.0,9.0,72,-99.99,,,-99.99,,2013-01-19 07:02:00,
2013-01-19 02:12:00,68.0,60.0,30.14,East,100,4.0,8.0,74,-99.99,,,-99.99,,2013-01-19 07:12:00,
2013-01-19 02:23:00,68.0,60.0,30.14,East,100,4.0,8.0,74,-99.99,,,-99.99,,2013-01-19 07:23:00,
2013-01-19 02:33:00,68.0,60.0,30.13,ENE,74,4.0,5.0,75,-99.99,,,-99.99,,2013-01-19 07:33:00,
2013-01-19 02:43:00,68.0,60.0,30.13,East,82,3.0,5.0,77,-99.99,,,-99.99,,2013-01-19 07:43:00,
2013-01-19 02:53:00,66.0,61.0,30.13,NNW,331,2.0,3.0,85,-99.99,,,-99.99,,2013-01-19 07:53:00,
2013-01-19 03:02:00,66.0,61.0,30.13,NNW,331,2.0,3.0,85,-99.99,,,-99.99,,2013-01-19 08:02:00,
2013-01-19 03:12:00,65.0,61.0,30.13,NW,318,2.0,4.0,88,-99.99,,,-99.99,,2013-01-19 08:12:00,
2013-01-19 03:22:00,65.0,61.0,30.13,NW,318,2.0,4.0,88,-99.99,,,-99.99,,2013-01-19 08:22:00,
2013-01-19 03:32:00,65.0,61.0,30.13,NW,318,2.0,4.0,88,-99.99,,,-99.99,,2013-01-19 08:32:00,
2013-01-19 03:43:00,64.0,61.0,30.12,WSW,252,3.0,6.0,89,-99.99,,,-99.99,,2013-01-19 08:43:00,
2013-01-19 03:53:00,64.0,61.0,30.12,WNW,285,2.0,3.0,90,-99.99,,,-99.99,,2013-01-19 08:53:00,
2013-01-19 04:02:00,64.0,61.0,30.12,WNW,285,2.0,3.0,90,-99.99,,,-99.99,,2013-01-19 09:02:00,
2013-01-19 04:12:00,64.0,61.0,30.12,ENE,74,2.0,4.0,90,-99.99,,,-99.99,,2013-01-19 09:12:00,
2013-01-19 04:23:00,64.0,61.0,30.12,ENE,74,2.0,4.0,90,-99.99,,,-99.99,,2013-01-19 09:23:00,
2013-01-19 04:33:00,64.0,61.0,30.12,NNW,329,3.0,5.0,90,-99.99,,,-99.99,,2013-01-19 09:33:00,
2013-01-19 04:43:00,64.0,61.0,30.12,NW,325,3.0,5.0,90,-99.99,,,-99.99,,2013-01-19 09:43:00,
2013-01-19 04:53:00,64.0,61.0,30.12,NW,325,3.0,4.0,89,-99.99,,,-99.99,,2013-01-19 09:53:00,
2013-01-19 05:02:00,64.0,61.0,30.12,NW,325,3.0,4.0,89,-99.99,,,-99.99,,2013-01-19 10:02:00,
2013-01-19 05:12:00,64.0,61.0,30.12,WNW,303,2.0,4.0,89,-99.99,,,-99.99,,2013-01-19 10:12:00,
2013-01-19 05:23:00,64.0,61.0,30.12,WNW,303,2.0,4.0,89,-99.99,,,-99.99,,2013-01-19 10:23:00,
2013-01-19 05:33:00,64.0,61.0,30.12,West,277,3.0,5.0,89,-99.99,,,-99.99,,2013-01-19 10:33:00,
2013-01-19 05:43:00,64.0,61.0,30.12,South,171,5.0,8.0,90,-99.99,,,-99.99,,2013-01-19 10:43:00,
2013-01-19 05:53:00,64.0,61.0,30.12,WNW,295,3.0,5.0,89,-99.99,,,-99.99,,2013-01-19 10:53:00,
2013-01-19 06:03:00,64.0,61.0,30.12,WNW,295,3.0,5.0,89,-99.99,,,-99.99,,2013-01-19 11:03:00,
2013-01-19 06:12:00,64.0,61.0,30.12,South,187,3.0,5.0,89,-99.99,,,-99.99,,2013-01-19 11:12:00,
2013-01-19 06:30:00,64.0,61.0,30.13,NNW,334,4.0,6.0,89,-99.99,,,-99.99,,2013-01-19 11:30:00,
2013-01-19 06:45:00,64.0,61.0,30.13,NW,323,4.0,6.0,89,-99.99,,,-99.99,,2013-01-19 11:45:00,
2013-01-19 07:48:00,64.0,61.0,30.14,NW,322,4.0,6.0,89,-99.99,,,-99.99,,2013-01-19 12:48:00,
2013-01-19 07:53:00,64.0,61.0,30.15,NW,323,3.0,6.0,89,-99.99,,,-99.99,,2013-01-19 12:53:00,
2013-01-19 08:03:00,64.0,61.0,30.15,NW,323,3.0,6.0,89,-99.99,,,-99.99,,2013-01-19 13:03:00,
2013-01-19 08:13:00,65.0,61.0,30.15,NW,308,4.0,6.0,88,-99.99,,,-99.99,,2013-01-19 13:13:00,
2013-01-19 08:23:00,65.0,61.0,30.15,NW,308,4.0,6.0,88,-99.99,,,-99.99,,2013-01-19 13:23:00,
2013-01-19 08:33:00,65.0,61.0,30.15,NNW,336,4.0,6.0,87,-99.99,,,-99.99,,2013-01-19 13:33:00,
2013-01-19 08:43:00,65.0,61.0,30.15,NW,314,5.0,8.0,86,-99.99,,,-99.99,,2013-01-19 13:43:00,
2013-01-19 08:54:00,66.0,61.0,30.16,WNW,291,7.0,37.0,85,-99.99,,,-99.99,,2013-01-19 13:54:00,
2013-01-19 09:03:00,66.0,61.0,30.16,WNW,291,7.0,37.0,85,-99.99,,,-99.99,,2013-01-19 14:03:00,
2013-01-19 09:12:00,66.0,61.0,30.16,WNW,292,7.0,39.0,84,-99.99,,,-99.99,,2013-01-19 14:12:00,
2013-01-19 09:23:00,66.0,61.0,30.16,WNW,292,7.0,39.0,84,-99.99,,,-99.99,,2013-01-19 14:23:00,
2013-01-19 09:34:00,66.0,61.0,30.16,WNW,292,7.0,39.0,84,-99.99,,,-99.99,,2013-01-19 14:34:00,
2013-01-19 09:43:00,66.0,62.0,30.18,WSW,241,5.0,10.0,88,-99.99,,,-99.99,,2013-01-19 14:43:00,
2013-01-19 09:54:00,65.0,63.0,30.20,SW,223,6.0,9.0,92,-99.99,,,-99.99,,2013-01-19 14:54:00,
2013-01-19 10:03:00,65.0,63.0,30.20,SW,223,6.0,9.0,92,-99.99,,,-99.99,,2013-01-19 15:03:00,
2013-01-19 10:13:00,64.0,63.0,30.20,SW,215,7.0,12.0,95,-99.99,,,-99.99,,2013-01-19 15:13:00,
2013-01-19 10:23:00,64.0,63.0,30.20,SW,215,7.0,12.0,95,-99.99,,,-99.99,,2013-01-19 15:23:00,
2013-01-19 10:33:00,64.0,63.0,30.20,SW,232,6.0,10.0,96,-99.99,,,-99.99,,2013-01-19 15:33:00,
2013-01-19 10:43:00,64.0,63.0,30.21,West,263,5.0,8.0,97,-99.99,,,-99.99,,2013-01-19 15:43:00,
2013-01-19 10:53:00,64.0,63.0,30.20,West,280,4.0,7.0,97,-99.99,,,-99.99,,2013-01-19 15:53:00,
2013-01-19 11:03:00,64.0,63.0,30.20,West,280,4.0,7.0,97,-99.99,,,-99.99,,2013-01-19 16:03:00,
2013-01-19 11:13:00,65.0,64.0,30.20,NW,314,2.0,4.0,97,-99.99,,,-99.99,,2013-01-19 16:13:00,
2013-01-19 11:23:00,65.0,64.0,30.20,NW,314,2.0,4.0,97,-99.99,,,-99.99,,2013-01-19 16:23:00,
2013-01-19 11:33:00,65.0,65.0,30.20,NW,305,2.0,4.0,97,-99.99,,,-99.99,,2013-01-19 16:33:00,
2013-01-19 11:43:00,65.0,65.0,30.19,WNW,286,3.0,5.0,97,-99.99,,,-99.99,,2013-01-19 16:43:00,
2013-01-19 11:54:00,66.0,65.0,30.19,West,267,3.0,4.0,97,-99.99,,,-99.99,,2013-01-19 16:54:00,
2013-01-19 12:03:00,66.0,65.0,30.19,West,267,3.0,4.0,97,-99.99,,,-99.99,,2013-01-19 17:03:00,
2013-01-19 12:22:00,66.0,66.0,30.18,NW,323,3.0,4.0,97,-99.99,,,-99.99,,2013-01-19 17:22:00,
2013-01-19 12:29:00,66.0,66.0,30.18,NW,323,3.0,4.0,97,-99.99,,,-99.99,,2013-01-19 17:29:00,
2013-01-19 12:36:00,67.0,66.0,30.18,NW,310,3.0,5.0,97,-99.99,,,-99.99,,2013-01-19 17:36:00,
2013-01-19 12:48:00,67.0,66.0,30.17,NW,325,3.0,4.0,97,-99.99,,,-99.99,,2013-01-19 17:48:00,
2013-01-19 12:55:00,67.0,66.0,30.16,NW,320,3.0,5.0,97,-99.99,,,-99.99,,2013-01-19 17:55:00,
2013-01-19 13:12:00,67.0,66.0,30.16,NW,320,3.0,5.0,97,-99.99,,,-99.99,,2013-01-19 18:12:00,
2013-01-19 13:45:00,68.0,67.0,30.13,West,266,2.0,4.0,94,-99.99,,,-99.99,,2013-01-19 18:45:00,
2013-01-19 14:03:00,68.0,67.0,30.13,South,186,1.0,3.0,94,-99.99,,,-99.99,,2013-01-19 19:03:00,
2013-01-19 14:09:00,68.0,67.0,30.13,South,186,1.0,3.0,94,-99.99,,,-99.99,,2013-01-19 19:09:00,
2013-01-19 14:21:00,68.0,67.0,30.12,SSE,154,1.0,2.0,94,-99.99,,,-99.99,,2013-01-19 19:21:00,
2013-01-19 14:30:00,68.0,67.0,30.12,SSE,154,1.0,2.0,94,-99.99,,,-99.99,,2013-01-19 19:30:00,
2013-01-19 14:40:00,68.0,67.0,30.11,SSW,195,1.0,3.0,95,-99.99,,,-99.99,,2013-01-19 19:40:00,
2013-01-19 14:48:00,68.0,67.0,30.11,West,269,2.0,3.0,95,-99.99,,,-99.99,,2013-01-19 19:48:00,
2013-01-19 14:59:00,68.0,67.0,30.10,West,272,2.0,3.0,95,-99.99,,,-99.99,,2013-01-19 19:59:00,
2013-01-19 15:11:00,68.0,67.0,30.10,West,272,2.0,3.0,95,-99.99,,,-99.99,,2013-01-19 20:11:00,
2013-01-19 15:19:00,69.0,67.0,30.10,NW,307,3.0,5.0,96,-99.99,,,-99.99,,2013-01-19 20:19:00,
2013-01-19 15:27:00,69.0,67.0,30.10,NW,307,3.0,5.0,96,-99.99,,,-99.99,,2013-01-19 20:27:00,
2013-01-19 15:45:00,69.0,67.0,30.09,East,79,10.0,16.0,95,-99.99,,,-99.99,,2013-01-19 20:45:00,
2013-01-19 15:49:00,69.0,67.0,30.10,ENE,77,2.0,4.0,94,-99.99,,,-99.99,,2013-01-19 20:49:00,
2013-01-19 15:59:00,69.0,68.0,30.10,ENE,67,5.0,9.0,93,-99.99,,,-99.99,,2013-01-19 20:59:00,
2013-01-19 16:08:00,69.0,68.0,30.10,ENE,67,5.0,9.0,93,-99.99,,,-99.99,,2013-01-19 21:08:00,
2013-01-19 16:15:00,69.0,67.0,30.09,East,79,10.0,16.0,95,-99.99,,,-99.99,,2013-01-19 21:15:00,
2013-01-19 16:29:00,69.0,67.0,30.09,East,79,10.0,16.0,95,-99.99,,,-99.99,,2013-01-19 21:29:00,
2013-01-19 16:52:00,67.0,67.0,30.09,East,80,10.0,15.0,97,-99.99,,,-99.99,,2013-01-19 21:52:00,
2013-01-19 17:02:00,67.0,67.0,30.09,ENE,67,9.0,14.0,97,-99.99,,,-99.99,,2013-01-19 22:02:00,
2013-01-19 17:15:00,67.0,67.0,30.09,ENE,67,9.0,14.0,97,-99.99,,,-99.99,,2013-01-19 22:15:00,
2013-01-19 17:28:00,67.0,67.0,30.09,ENE,63,7.0,11.0,97,-99.99,,,-99.99,,2013-01-19 22:28:00,
2013-01-19 17:35:00,67.0,66.0,30.08,ENE,69,8.0,12.0,96,-99.99,,,-99.99,,2013-01-19 22:35:00,
2013-01-19 17:48:00,67.0,66.0,30.08,East,81,11.0,16.0,94,-99.99,,,-99.99,,2013-01-19 22:48:00,
2013-01-19 17:55:00,67.0,66.0,30.08,East,80,12.0,17.0,93,-99.99,,,-99.99,,2013-01-19 22:55:00,
2013-01-19 18:14:00,67.0,66.0,30.08,East,80,12.0,17.0,93,-99.99,,,-99.99,,2013-01-19 23:14:00,
2013-01-19 18:35:00,68.0,65.0,30.09,East,82,5.0,11.0,92,-99.99,,,-99.99,,2013-01-19 23:35:00,
2013-01-19 18:47:00,68.0,66.0,30.10,WNW,282,3.0,4.0,93,-99.99,,,-99.99,,2013-01-19 23:47:00,
2013-01-19 19:08:00,67.0,66.0,30.10,West,261,3.0,5.0,95,-99.99,,,-99.99,,2013-01-20 00:08:00,
2013-01-19 19:26:00,67.0,66.0,30.11,SE,130,2.0,4.0,95,-99.99,,,-99.99,,2013-01-20 00:26:00,
2013-01-19 19:36:00,67.0,66.0,30.11,NE,53,2.0,3.0,95,-99.99,,,-99.99,,2013-01-20 00:36:00,
2013-01-19 19:47:00,67.0,66.0,30.11,ENE,57,3.0,5.0,96,-99.99,,,-99.99,,2013-01-20 00:47:00,
2013-01-19 19:58:00,67.0,66.0,30.11,NE,41,4.0,6.0,96,-99.99,,,-99.99,,2013-01-20 00:58:00,
2013-01-19 20:04:00,67.0,66.0,30.11,NE,41,4.0,6.0,96,-99.99,,,-99.99,,2013-01-20 01:04:00,
2013-01-19 20:21:00,67.0,66.0,30.12,NE,52,3.0,5.0,97,-99.99,,,-99.99,,2013-01-20 01:21:00,
2013-01-19 20:28:00,67.0,66.0,30.12,ESE,116,3.0,4.0,97,-99.99,,,-99.99,,2013-01-20 01:28:00,
2013-01-19 20:38:00,67.0,66.0,30.12,ESE,116,3.0,4.0,97,-99.99,,,-99.99,,2013-01-20 01:38:00,
2013-01-19 20:49:00,67.0,66.0,30.12,NW,316,4.0,7.0,97,-99.99,,,-99.99,,2013-01-20 01:49:00,
2013-01-19 21:04:00,67.0,66.0,30.11,NNE,28,7.0,10.0,98,-99.99,,,-99.99,,2013-01-20 02:04:00,
2013-01-19 21:15:00,67.0,66.0,30.12,WNW,299,3.0,6.0,98,-99.99,,,-99.99,,2013-01-20 02:15:00,
2013-01-19 21:27:00,67.0,66.0,30.12,WNW,299,3.0,6.0,98,-99.99,,,-99.99,,2013-01-20 02:27:00,
2013-01-19 21:36:00,66.0,66.0,30.12,NNW,330,4.0,6.0,98,-99.99,,,-99.99,,2013-01-20 02:36:00,
2013-01-19 21:45:00,66.0,66.0,30.12,WNW,301,4.0,6.0,98,-99.99,,,-99.99,,2013-01-20 02:45:00,
2013-01-19 21:59:00,66.0,65.0,30.12,NW,323,2.0,3.0,98,-99.99,,,-99.99,,2013-01-20 02:59:00,
2013-01-19 22:09:00,66.0,65.0,30.12,NW,323,2.0,3.0,98,-99.99,,,-99.99,,2013-01-20 03:09:00,
2013-01-19 22:15:00,66.0,65.0,30.12,West,269,2.0,4.0,98,-99.99,,,-99.99,,2013-01-20 03:15:00,
2013-01-19 22:26:00,66.0,65.0,30.12,West,269,2.0,4.0,98,-99.99,,,-99.99,,2013-01-20 03:26:00,
2013-01-19 22:39:00,66.0,65.0,30.11,West,266,3.0,4.0,98,-99.99,,,-99.99,,2013-01-20 03:39:00,
2013-01-19 22:45:00,66.0,65.0,30.11,West,266,3.0,4.0,98,-99.99,,,-99.99,,2013-01-20 03:45:00,
2013-01-19 22:58:00,65.0,65.0,30.11,NNW,329,4.0,5.0,98,-99.99,,,-99.99,,2013-01-20 03:58:00,
2013-01-19 23:05:00,65.0,65.0,30.11,NNW,329,4.0,5.0,98,-99.99,,,-99.99,,2013-01-20 04:05:00,
2013-01-19 23:15:00,65.0,65.0,30.10,NNW,328,4.0,5.0,98,-99.99,,,-99.99,,2013-01-20 04:15:00,
2013-01-19 23:27:00,65.0,65.0,30.10,NNW,328,4.0,5.0,98,-99.99,,,-99.99,,2013-01-20 04:27:00,
2013-01-19 23:37:00,65.0,65.0,30.10,NW,324,4.0,6.0,98,-99.99,,,-99.99,,2013-01-20 04:37:00,
2013-01-19 23:45:00,65.0,65.0,30.10,West,266,4.0,6.0,99,-99.99,,,-99.99,,2013-01-20 04:45:00,
2013-01-19 23:59:00,65.0,65.0,30.10,SW,231,4.0,5.0,99,-99.99,,,-99.99,,2013-01-20 04:59:00,